STAR ONE C4

Last updated on Wed Sep 09 2026 00:03:00 GMT+0000 (Coordinated Universal Time)

1 40733U 15034B 26251.07482640 -.00000286 00000+0 00000+0 0 9992 2 40733 0.0427 343.8967 0001038 204.4710 115.7288 1.00271509 40845
UTC large
Height (km)
Speed (km/s)
/
Latitude / Longitude
Inclination (degrees)
Orbital Period (minutes)
Azimuth
Elevation
Range (km)
Doppler Factor

Next 0 passes for location: London (51.5072 / 0.1276)

No passes found over London.
STAR ONE C4